Theta_e
290 290 289 289 287 288 288 287 288 288 288 289 290 289 289 289 289 290 291 297 300 303 306 309 312 315 316 316 317 317 318 319 319 320 323 324 327 328 332 338 341 342 343
289 289 288 288 287 287 287 287 287 287 287 288 288 288 288 289 289 289 290 290 297 300 304 307 309 311 312 313 314 315 316 317 318 318 319 320 321 322 325 327 334 339 340
289 288 288 287 286 287 287 286 286 286 286 287 286 287 288 289 288 288 288 289 290 297 301 305 307 309 310 312 313 315 315 316 316 317 316 316 319 321 322 323 325 330 337
289 287 287 286 286 286 285 285 285 284 284 284 284 285 286 287 287 287 288 288 289 292 296 302 305 306 308 309 311 309 310 311 310 311 312 313 316 318 320 322 324 325 328
288 287 286 286 286 285 285 285 284 283 283 283 284 285 285 284 285 288 287 289 290 291 292 298 301 302 303 305 305 305 307 308 309 310 310 310 312 314 316 316 316 321 325
288 286 285 285 285 284 284 284 283 283 283 282 285 284 283 284 284 284 286 288 289 290 290 290 291 291 297 300 302 303 305 306 307 305 306 307 308 309 310 312 313 316 319
287 285 285 284 284 283 283 283 283 282 282 282 281 281 282 284 284 284 283 284 285 288 289 288 287 288 289 296 297 299 303 305 304 304 305 306 306 308 310 311 312 314 315
286 285 284 283 283 282 282 282 282 281 281 281 279 279 278 280 283 283 283 284 283 285 286 286 286 288 288 287 290 297 299 300 300 302 302 303 305 306 307 309 311 312 314
286 285 284 283 282 282 281 281 281 281 280 280 280 279 277 276 278 281 282 283 283 283 283 285 285 287 286 287 290 290 293 294 297 299 301 302 304 305 306 307 308 309 311
285 285 284 283 282 282 281 281 282 280 280 279 280 282 280 279 277 276 281 281 282 283 283 283 284 285 286 286 288 290 291 292 294 296 298 300 300 302 303 305 306 308 309
284 284 283 282 281 281 281 281 280 280 280 279 279 279 279 278 279 277 275 278 281 281 283 283 284 284 284 285 285 286 290 291 292 294 294 295 297 299 301 302 303 306 307
283 283 283 281 281 281 281 281 280 280 280 279 280 279 279 278 277 277 276 276 277 279 280 282 282 283 283 283 285 287 289 290 291 291 292 293 294 295 297 299 301 303 304
282 282 282 281 281 280 280 280 279 279 279 279 279 278 279 279 280 279 278 276 275 277 278 279 281 281 283 283 283 286 287 288 289 290 290 291 292 293 294 296 298 300 301
284 283 282 281 280 280 279 279 279 278 278 279 277 278 279 279 280 279 278 276 273 274 277 276 279 280 281 281 283 285 282 285 286 288 289 289 290 291 292 293 295 296 297
284 282 282 280 280 279 279 278 278 277 278 278 278 278 277 278 279 279 279 278 275 270 273 275 276 279 280 280 281 281 280 282 285 286 287 287 288 289 290 291 292 294 296
282 281 280 280 278 278 278 277 277 277 277 277 278 277 277 277 278 278 278 278 277 274 270 275 276 277 279 279 280 279 279 281 282 283 284 285 286 287 288 289 290 292 294
281 280 280 279 278 277 277 276 276 276 276 276 276 276 276 277 276 276 276 276 275 275 271 274 276 277 276 276 277 277 278 277 278 281 283 284 285 285 286 287 288 290 291
280 280 279 278 277 277 276 276 275 276 275 275 275 275 275 276 274 275 275 274 274 274 273 270 273 274 274 276 276 276 276 278 277 280 282 283 284 285 285 286 287 288 289
279 279 278 277 276 276 275 275 275 274 274 274 274 274 274 274 273 274 273 273 273 274 273 272 271 274 274 275 275 275 276 277 278 280 282 282 283 283 284 285 285 286 287
278 278 277 277 276 275 275 275 275 273 273 273 274 274 274 274 273 274 274 274 274 273 273 272 271 272 273 275 275 274 274 276 276 278 280 280 281 282 283 284 284 284 285
278 277 276 275 275 274 274 274 274 273 273 273 274 274 275 275 276 276 275 274 274 273 273 272 272 273 273 273 273 275 274 274 275 276 276 276 277 278 279 281 281 283 286
276 276 275 274 273 274 279 279 275 273 273 273 274 275 275 275 275 277 278 279 278 275 273 273 273 273 273 274 275 274 273 272 269 276 274 273 276 275 277 280 283 284 285
275 275 274 274 273 273 280 280 278 275 274 275 275 274 274 275 275 274 276 277 278 278 279 276 273 273 273 274 274 273 273 272 272 274 275 272 275 274 276 278 282 283 284
274 274 273 273 273 274 280 281 280 276 275 275 274 275 274 274 274 275 275 274 275 275 276 277 276 275 276 276 276 276 275 276 276 276 277 271 275 273 276 277 281 283 284
274 273 274 274 274 273 280 281 279 275 275 275 274 275 274 274 276 277 275 273 274 275 278 278 278 279 280 279 277 274 270 269 267 270 274 273 274 274 276 276 278 283 284
274 274 273 273 272 270 279 280 279 273 273 273 274 274 276 275 276 277 275 274 271 272 272 272 274 273 273 272 274 273 270 267 268 269 275 273 273 273 271 276 278 280 281
Wind_Speed
5 5 4 4 3 3 3 3 3 3 4 4 4 5 5 5 5 3 3 10 12 12 11 10 10 11 13 12 13 13 13 14 15 17 17 18 19 20 22 18 17 17 19
5 5 4 4 3 3 3 3 3 3 4 4 5 4 4 4 4 4 3 4 10 10 9 9 10 10 11 11 11 12 13 13 14 15 16 17 16 17 18 20 21 17 18
7 6 5 4 4 3 4 3 3 3 4 3 5 5 5 5 5 5 4 3 4 8 9 10 10 12 11 12 13 13 14 15 16 15 17 20 19 19 17 17 19 21 18
7 6 5 4 4 3 3 3 3 2 2 3 3 4 5 5 5 5 4 3 3 2 6 8 10 11 11 11 15 20 19 18 18 18 18 16 17 17 18 19 20 19 20
7 6 5 4 5 4 3 2 2 2 2 3 4 4 4 4 5 5 5 5 5 4 2 5 9 10 12 12 16 19 18 19 16 19 18 20 19 17 18 18 20 21 21
7 6 5 5 5 4 3 2 2 2 1 3 4 4 4 4 3 3 3 4 4 3 4 5 5 5 14 14 20 22 21 20 18 23 21 20 20 21 21 21 21 20 21
7 7 5 5 5 5 5 4 2 3 4 4 3 4 4 4 3 2 3 3 5 5 6 5 4 3 4 15 21 20 21 21 24 24 21 21 21 22 21 21 21 21 22
8 7 7 6 6 5 5 4 4 2 2 4 3 1 5 5 4 4 3 5 5 3 4 5 4 5 4 4 8 18 20 22 25 22 22 22 21 22 22 24 24 23 24
8 8 8 6 6 5 5 5 5 5 4 2 5 4 2 2 4 4 4 3 5 4 3 4 7 5 5 4 7 11 18 21 22 24 23 21 21 22 24 25 25 25 25
9 8 8 7 7 4 6 5 4 4 5 4 3 2 2 3 2 6 3 4 4 4 4 4 4 4 5 4 9 13 18 19 20 23 23 22 25 26 25 24 26 27 27
9 9 9 8 7 5 6 7 6 6 3 4 4 3 1 1 2 3 6 7 8 2 5 5 4 4 5 5 5 8 16 17 19 21 24 26 25 26 26 25 28 30 29
7 9 9 8 7 6 6 5 5 6 5 4 3 4 4 4 3 3 4 6 9 10 4 7 5 5 4 4 7 14 16 17 19 23 27 28 28 28 28 30 30 30 31
8 11 10 9 7 7 7 6 6 5 5 4 5 4 3 3 2 2 4 8 5 3 4 5 4 3 5 3 4 10 11 16 23 26 27 28 29 29 30 31 31 31 30
11 12 11 10 9 9 7 7 5 5 5 4 5 3 3 3 3 3 4 5 9 4 5 5 2 5 4 3 6 15 10 20 23 27 29 31 31 32 32 33 34 34 34
9 10 12 11 10 9 9 8 6 6 6 5 5 5 3 3 3 3 3 3 4 6 7 1 3 2 1 2 8 11 11 20 26 29 31 33 34 33 33 34 35 35 34
11 12 13 12 11 10 9 9 6 5 6 4 4 5 4 3 3 3 4 4 5 7 10 3 4 7 8 7 11 13 13 25 27 29 32 34 34 34 34 35 35 35 35
13 13 14 13 13 12 10 8 7 7 7 6 4 5 4 4 3 3 4 5 6 7 12 14 6 9 11 14 14 12 13 14 14 28 32 34 35 35 36 37 37 37 37
13 14 14 14 13 11 10 10 9 8 8 7 7 6 5 4 5 5 5 7 8 8 9 22 14 11 14 14 16 17 14 13 15 24 32 34 35 35 38 38 37 37 37
13 13 14 15 14 13 12 10 9 9 8 7 7 6 6 6 7 6 7 7 6 8 8 12 20 12 12 13 16 16 16 17 14 26 31 34 34 34 35 36 36 36 37
15 14 14 14 14 13 12 11 11 9 8 8 8 8 7 8 8 8 7 8 7 8 9 11 15 17 13 14 13 16 16 13 15 13 21 27 33 36 37 37 37 37 37
15 16 14 12 13 12 10 12 11 10 10 8 7 7 7 8 13 11 6 7 8 8 8 11 14 16 16 14 16 14 18 18 16 13 14 13 14 14 16 24 29 34 32
14 14 14 14 13 9 20 21 14 9 9 9 8 7 7 7 10 15 15 16 14 10 12 11 12 16 22 17 16 17 18 18 24 10 15 17 13 16 15 14 27 35 37
14 14 13 13 13 10 22 21 19 9 9 8 8 7 5 6 7 7 11 17 18 21 24 17 18 17 23 18 20 22 21 20 23 16 17 20 13 17 15 17 34 37 40
15 15 13 13 12 10 22 22 21 8 7 7 7 5 6 7 8 9 9 10 12 13 14 13 16 17 19 18 19 20 23 22 19 17 13 20 13 17 15 15 34 37 38
13 13 14 16 16 12 23 23 18 9 8 8 5 6 6 8 12 15 11 10 13 12 15 23 29 33 33 34 33 19 17 17 20 20 13 18 17 17 15 16 16 32 35
11 10 10 9 10 10 22 22 17 7 9 6 5 6 12 9 16 16 11 9 12 11 13 15 12 16 21 19 29 18 14 17 17 22 11 15 15 14 18 12 12 11 12
Wind_Direction
162 149 156 141 139 135 116 99 74 51 37 13 10 8 340 333 320 312 322 329 338 340 343 347 348 357 358 355 358 352 353 349 343 340 339 345 344 348 348 330 310 283 249
159 157 153 151 149 139 130 116 104 67 40 11 354 348 318 300 304 308 309 331 330 340 347 355 357 3 1 360 0 358 358 359 353 351 346 339 341 340 335 341 336 315 289
167 158 151 153 161 150 133 101 71 54 36 6 340 331 313 320 314 323 313 300 318 340 351 355 7 5 2 3 2 10 5 6 357 354 354 351 341 331 331 333 329 336 317
161 153 149 159 157 138 114 90 61 49 26 9 328 314 313 311 305 311 306 318 318 337 351 354 6 5 4 357 14 357 350 350 343 338 340 337 330 337 336 337 337 328 329
163 154 156 157 156 136 118 112 72 74 7 345 315 302 305 309 317 328 327 336 332 348 12 28 53 44 23 360 352 350 345 340 343 345 341 335 335 327 329 333 331 327 327
171 159 155 154 152 136 120 95 93 38 26 328 311 313 307 303 295 309 324 327 335 6 24 36 41 11 356 344 345 343 336 330 337 332 326 325 328 323 322 320 323 318 317
172 165 158 158 161 157 159 147 118 64 21 336 355 338 335 352 56 40 324 14 8 17 44 30 23 357 342 347 341 331 324 323 329 322 323 324 324 322 323 318 316 314 309
174 168 163 171 167 147 144 152 154 131 73 8 73 125 1 334 340 8 4 355 16 27 5 349 347 350 352 334 317 320 318 321 318 316 320 319 319 319 322 318 316 311 306
173 167 169 163 166 154 166 169 160 162 145 69 60 125 7 308 318 329 349 342 354 338 329 331 335 329 327 306 313 317 317 316 310 315 314 316 318 316 315 312 309 305 302
179 175 171 166 164 165 168 167 169 167 139 144 93 106 140 153 355 322 302 294 331 318 297 292 279 279 285 281 299 306 307 305 306 310 312 316 313 308 307 309 306 302 299
182 179 175 168 171 170 170 170 170 172 154 136 143 144 103 137 172 205 305 311 308 227 278 275 266 269 277 286 296 293 296 299 306 307 312 309 309 308 306 306 305 301 295
188 186 181 173 168 170 176 175 171 170 164 134 141 163 165 160 156 187 256 265 282 311 294 282 271 261 266 263 265 281 290 296 304 306 307 304 301 299 300 302 297 293 290
190 193 180 176 177 173 170 160 164 171 171 167 168 178 173 181 175 194 247 278 269 274 270 290 274 283 272 254 259 280 285 296 304 304 302 301 300 297 295 295 294 292 290
193 179 184 177 167 171 167 164 160 166 171 172 175 185 175 187 188 211 241 292 305 264 250 237 211 236 260 291 292 306 299 299 302 302 301 300 298 296 293 291 289 286 282
174 171 177 174 171 170 169 166 169 172 172 175 174 179 185 185 199 221 232 229 257 303 301 128 243 179 94 278 289 301 299 300 302 300 299 296 295 293 291 288 285 281 279
165 168 173 170 167 168 171 171 171 172 168 172 164 174 185 182 205 216 228 229 230 255 283 78 303 299 299 298 296 298 296 294 292 291 291 292 292 292 291 287 283 278 275
170 174 175 169 171 173 174 169 168 170 173 175 166 174 183 177 201 219 226 232 238 243 269 288 290 299 299 299 297 296 293 287 285 284 283 287 292 293 290 286 282 278 275
176 172 170 170 170 170 170 176 176 178 173 172 176 178 186 201 212 218 231 239 244 246 267 286 294 296 296 299 295 294 287 277 276 275 283 287 285 285 287 286 281 277 275
174 168 169 172 170 173 170 175 176 176 174 174 170 179 185 191 226 224 225 237 247 260 266 278 291 298 293 296 295 286 280 278 274 279 281 283 283 282 282 281 279 277 275
168 174 179 174 171 167 171 173 174 175 175 177 180 189 194 206 223 231 237 246 254 261 267 272 281 291 292 291 285 291 289 284 285 280 279 280 280 282 281 280 278 277 274
177 176 168 171 168 168 170 172 170 174 181 177 183 196 216 222 237 241 244 249 253 258 264 270 277 286 289 293 289 294 289 292 282 281 282 277 276 273 273 273 269 267 266
173 168 175 168 165 172 182 183 173 174 177 178 186 201 217 229 246 258 262 271 268 267 268 269 278 286 287 288 293 294 289 289 291 265 271 274 269 271 270 265 265 271 268
165 172 169 165 168 166 184 188 184 178 178 183 191 203 218 238 238 251 267 275 279 281 278 279 280 282 289 289 291 289 281 277 276 276 275 276 265 266 268 264 266 268 270
173 169 168 165 161 174 186 189 191 164 176 184 198 205 234 250 250 260 259 264 265 264 266 267 272 278 276 280 275 280 282 279 281 283 274 272 277 266 266 261 265 269 270
173 172 169 167 174 173 185 187 181 168 182 197 191 229 235 249 259 280 274 275 275 273 280 284 286 287 289 295 294 292 285 286 282 279 268 267 276 271 270 267 256 263 268
164 161 162 167 158 158 186 186 177 164 178 175 196 221 243 247 272 281 279 284 286 288 292 282 285 294 289 285 286 279 283 279 282 282 266 266 273 273 281 257 252 254 256